[[{"header":{"parameterUnit":"m.s-1","parameterCategory":1,"la1":30.2991,"la2":30.254,"lo1":-89.0895,"lo2":-89.0444,"dy":0.0017,"dx":0.0017,"nx":28,"ny":28,"refTime":"2025-12-05T09:00:00:Z","depth":0,"parameterNumber":2,"parameterNumberName":"U-component_of_WINDS"},"data":[0,0,0,0,0,0,0,0,0,0,0,0,0,0,0,0,0,0,0,0,0,0,0,0,0,0,0,0,0,0,0,0,0,0,0,0,0,0,0,0,0,0,0,0,0,0,0,0,0,0,0,0,0,0,0,0,0,0,-0.3275,-0.3275,0,-0.3289,-0.329,-0.329,-0.3283,-0.3283,-0.3282,-0.3282,-0.3297,-0.3298,-0.3299,0,0,0,0,0,0,0,0,0,0,0,0,0,-0.3241,-0.3242,-0.3275,-0.3275,-0.3275,-0.3289,-0.329,-0.329,-0.3283,-0.3283,-0.3282,-0.3282,-0.3297,-0.3298,-0.3299,0,0,0,0,0,0,0,0,0,0,0,0,0,-0.3256,-0.3242,-0.3275,-0.3274,-0.3274,-0.3289,-0.329,-0.329,-0.3283,-0.3283,-0.3282,-0.3282,-0.3297,-0.3298,-0.3299,-0.3317,0,0,-0.3302,-0.3303,0,0,0,0,0,0,0,0,-0.3255,-0.3257,-0.3274,-0.3274,-0.3274,-0.3284,-0.3283,-0.3299,-0.3283,-0.328,-0.3282,-0.3281,-0.3293,-0.3295,-0.3299,-0.3317,-0.3318,-0.3302,-0.3303,-0.3303,-0.3304,0,0,0,0,0,0,0,-0.3254,-0.3256,-0.3281,-0.3274,-0.3274,-0.3272,-0.3274,-0.3286,-0.3289,-0.328,-0.328,-0.3281,-0.3293,-0.3297,-0.3299,-0.3318,-0.3302,-0.3303,-0.3304,-0.3304,-0.3352,-0.3352,0,0,0,0,0,0,-0.3253,-0.3256,-0.328,-0.3281,-0.3263,-0.3273,-0.3275,-0.3281,-0.3289,-0.329,-0.3282,-0.3281,-0.3296,-0.3298,-0.3299,-0.3321,-0.3303,-0.3305,-0.3305,-0.3351,-0.3352,-0.3352,0,0,0,0,0,0,-0.3252,-0.3255,-0.328,-0.3268,-0.3271,-0.3275,-0.3282,-0.3282,-0.3286,-0.3291,-0.3291,-0.3286,-0.3295,-0.3298,-0.3312,-0.3321,-0.3305,-0.3306,-0.335,-0.3351,-0.3352,-0.3363,0,0,0,0,0,0,-0.3251,-0.3255,-0.3262,-0.3268,-0.3272,-0.3292,-0.3282,-0.3282,-0.3288,-0.3287,-0.3294,-0.3295,-0.3295,-0.3311,-0.3313,-0.3322,-0.3307,-0.335,-0.3351,-0.3352,-0.3362,-0.3364,-0.3366,0,0,0,0,0,-0.325,-0.3265,-0.3262,-0.3266,-0.3281,-0.3293,-0.3295,-0.3295,-0.3289,-0.3296,-0.3298,-0.3295,-0.3319,-0.3312,-0.3315,-0.3324,-0.3349,-0.335,-0.3352,-0.3361,-0.3364,-0.3366,0,0,0,0,0,0,-0.326,-0.3266,-0.3263,-0.328,-0.3286,-0.3292,-0.3301,-0.3298,-0.3306,-0.3305,-0.3304,-0.3306,-0.3321,-0.3324,-0.3316,-0.3342,-0.3333,-0.3335,-0.3339,-0.3342,-0.3344,-0.3343,-0.3308,0,0,0,0,0,-0.3264,-0.3273,-0.3278,-0.3293,-0.3296,-0.3298,-0.3303,-0.3302,-0.3308,-0.3311,-0.3315,-0.3321,-0.333,-0.3336,-0.3345,-0.3362,-0.3363,-0.337,-0.3372,-0.3374,-0.3376,-0.3385,-0.3388,-0.3357,-0.3357,-0.3357,0,0,-0.3273,-0.3277,-0.3283,-0.3295,-0.3299,-0.3309,-0.33,-0.3311,-0.3318,-0.3313,-0.3327,-0.3329,-0.3336,-0.3352,-0.3359,-0.3355,-0.3384,-0.3375,-0.3377,-0.3378,-0.3386,-0.3389,-0.3392,-0.3358,-0.3357,-0.3357,0,0,-0.3293,-0.3298,-0.331,-0.3314,-0.3321,-0.3322,-0.3325,-0.3331,-0.3333,-0.3346,-0.3342,-0.3351,-0.3367,-0.3371,-0.3376,-0.3397,-0.3394,-0.34,-0.3411,-0.342,-0.3423,-0.3425,-0.3433,-0.3435,-0.3402,-0.3402,-0.3402,0,-0.3303,-0.3318,-0.3317,-0.3328,-0.3333,-0.3328,-0.3341,-0.3345,-0.3354,-0.3358,-0.3353,-0.3372,-0.3376,-0.3393,-0.3398,-0.3402,-0.3405,-0.34,-0.3422,-0.3424,-0.3427,-0.3434,-0.3437,-0.3402,-0.3402,-0.3402,-0.3402,0,-0.333,-0.334,-0.3349,-0.3358,-0.3364,-0.3376,-0.3376,-0.3382,-0.3381,-0.3382,-0.3396,-0.34,-0.341,-0.3413,-0.3412,-0.343,-0.3427,-0.3422,-0.3414,-0.343,-0.3437,-0.344,-0.3403,-0.3403,-0.3403,-0.3403,0,0,-0.3359,-0.3366,-0.3369,-0.3373,-0.3379,-0.3387,-0.3398,-0.3407,-0.3412,-0.3418,-0.3428,-0.344,-0.3436,-0.3441,-0.344,-0.3447,-0.3464,-0.3441,-0.3442,-0.3446,-0.3484,-0.3488,-0.3491,-0.3461,-0.3462,-0.3462,-0.3483,0,-0.338,-0.34,-0.3399,-0.3417,-0.3426,-0.3421,-0.3431,-0.3435,-0.3437,-0.3445,-0.3446,-0.3455,-0.3448,-0.3451,-0.3458,-0.346,-0.3472,-0.3459,-0.347,-0.3471,-0.347,-0.3495,-0.3499,-0.3519,-0.3486,-0.3486,-0.3487,0,-0.3408,-0.3415,-0.3434,-0.3439,-0.3443,-0.3451,-0.3459,-0.3466,-0.3471,-0.3472,-0.3477,-0.3474,-0.3485,-0.3476,-0.3491,-0.3482,-0.3487,-0.3488,-0.3489,-0.3491,-0.348,-0.3497,-0.3525,-0.3528,-0.3491,-0.349,-0.349,0,-0.3428,-0.3441,-0.3455,-0.3458,-0.3463,-0.3469,-0.3472,-0.3476,-0.3482,-0.3488,-0.3491,-0.3499,-0.3503,-0.3509,-0.3508,-0.3502,-0.3524,-0.3514,-0.3524,-0.3524,-0.353,-0.353,-0.3559,-0.3532,-0.3532,-0.3532,-0.3532,0,-0.3452,-0.3464,-0.3463,-0.3472,-0.3485,-0.3483,-0.3496,-0.3498,-0.3501,-0.351,-0.3505,-0.3513,-0.3512,-0.3519,-0.3519,-0.3531,-0.3533,-0.3534,-0.3534,-0.3535,-0.3535,-0.3538,-0.3537,-0.3533,-0.3532,-0.3532,-0.3532,0,-0.3477,-0.3476,-0.349,-0.3494,-0.3495,-0.3505,-0.3508,-0.3515,-0.3515,-0.3526,-0.3528,-0.3529,-0.3538,-0.3538,-0.3548,-0.3547,-0.3563,-0.3561,-0.3561,-0.3561,-0.3571,-0.357,-0.3604,-0.3609,-0.3578,-0.3578,-0.3579,0,-0.3493,-0.3502,-0.3506,-0.3511,-0.3514,-0.3522,-0.3527,-0.3525,-0.3531,-0.3536,-0.3543,-0.3552,-0.3558,-0.3572,-0.3574,-0.3581,-0.358,-0.3591,-0.3581,-0.3581,-0.358,-0.358,-0.3581,-0.3593,-0.3594,-0.3594,-0.3594,0,-0.3522,-0.3521,-0.3528,-0.3535,-0.3541,-0.3546,-0.3551,-0.3556,-0.3554,-0.356,-0.3569,-0.3574,-0.3584,-0.3592,-0.3599,-0.3601,-0.3598,-0.3597,-0.36,-0.3602,-0.3601,-0.3602,-0.3567,-0.3597,-0.3597,-0.3596,-0.3596,-0.3596,-0.3543,-0.355,-0.3554,-0.3562,-0.3565,-0.357,-0.3577,-0.3578,-0.3585,-0.3593,-0.3591,-0.3601,-0.3605,-0.3614,-0.3617,-0.3625,-0.3621,-0.3625,-0.3626,-0.3627,-0.3628,-0.36,-0.3626,-0.3626,-0.3626,-0.3626,-0.3625,0,-0.3571,-0.3573,-0.3581,-0.3587,-0.3594,-0.3589,-0.3594,-0.3599,-0.3608,-0.3612,-0.3618,-0.3628,-0.3636,-0.3637,-0.3645,-0.365,-0.3649,-0.3652,-0.3652,-0.3653,-0.3631,-0.3628,-0.3653,-0.3653,-0.3653,-0.3653,-0.3653,-0.3653,-0.3587,-0.36,-0.3599,-0.3613,-0.3615,-0.3624,-0.3628,-0.3632,-0.3635,-0.3646,-0.3652,-0.3653,-0.3656,-0.3663,-0.367,-0.367,-0.3673,-0.3677,-0.3677,-0.3657,-0.3654,-0.3652,-0.3649,-0.3678,-0.3678,-0.3698,-0.3698,-0.3698]},{"header":{"parameterUnit":"m.s-1","parameterCategory":1,"la1":30.2991,"la2":30.254,"lo1":-89.0895,"lo2":-89.0444,"dy":0.0017,"dx":0.0017,"nx":28,"ny":28,"refTime":"2025-12-05T09:00:00:Z","depth":0,"parameterNumber":3,"parameterNumberName":"V-component_of_WINDS"},"data":[0,0,0,0,0,0,0,0,0,0,0,0,0,0,0,0,0,0,0,0,0,0,0,0,0,0,0,0,0,0,0,0,0,0,0,0,0,0,0,0,0,0,0,0,0,0,0,0,0,0,0,0,0,0,0,0,0,0,-5.651,-5.6511,0,-5.6604,-5.6605,-5.6606,-5.6556,-5.6554,-5.6551,-5.6549,-5.6639,-5.6643,-5.6648,0,0,0,0,0,0,0,0,0,0,0,0,0,-5.6281,-5.6285,-5.651,-5.6511,-5.6512,-5.6604,-5.6605,-5.6607,-5.6557,-5.6554,-5.6551,-5.6548,-5.6637,-5.6643,-5.6649,0,0,0,0,0,0,0,0,0,0,0,0,0,-5.6378,-5.6287,-5.651,-5.6499,-5.6499,-5.6604,-5.6605,-5.6607,-5.6557,-5.6554,-5.655,-5.6546,-5.6635,-5.6642,-5.6649,-5.6769,0,0,-5.6671,-5.6674,0,0,0,0,0,0,0,0,-5.6373,-5.6387,-5.6499,-5.65,-5.65,-5.6565,-5.6558,-5.6661,-5.6558,-5.6535,-5.6549,-5.6544,-5.6617,-5.6625,-5.6651,-5.6773,-5.6777,-5.6672,-5.6676,-5.6679,-5.6681,0,0,0,0,0,0,0,-5.6366,-5.6382,-5.6547,-5.6501,-5.6501,-5.6487,-5.6497,-5.6577,-5.6596,-5.6537,-5.6533,-5.6545,-5.6616,-5.6644,-5.6653,-5.6778,-5.6672,-5.6678,-5.6682,-5.6685,-5.7003,-5.7007,0,0,0,0,0,0,-5.6361,-5.6377,-5.6544,-5.655,-5.6426,-5.6494,-5.6505,-5.6548,-5.6595,-5.6598,-5.6549,-5.6543,-5.6634,-5.6644,-5.6656,-5.6799,-5.6679,-5.6686,-5.669,-5.6999,-5.7004,-5.7009,0,0,0,0,0,0,-5.6356,-5.6376,-5.654,-5.6463,-5.6483,-5.6502,-5.655,-5.6551,-5.658,-5.6604,-5.6606,-5.6574,-5.6631,-5.6646,-5.6742,-5.6801,-5.6689,-5.6695,-5.6994,-5.7001,-5.7007,-5.7087,0,0,0,0,0,0,-5.635,-5.6375,-5.6422,-5.6464,-5.6487,-5.6627,-5.6554,-5.6556,-5.6593,-5.6586,-5.6629,-5.6632,-5.663,-5.6731,-5.6749,-5.6809,-5.6701,-5.6989,-5.6997,-5.7005,-5.7079,-5.7095,-5.7109,0,0,0,0,0,-5.6342,-5.6439,-5.6424,-5.6445,-5.6546,-5.663,-5.6643,-5.664,-5.6598,-5.6644,-5.666,-5.6631,-5.6792,-5.6742,-5.6761,-5.6824,-5.6985,-5.6995,-5.7004,-5.7072,-5.7092,-5.7109,0,0,0,0,0,0,-5.6401,-5.6444,-5.6429,-5.6543,-5.6584,-5.6622,-5.668,-5.6661,-5.6713,-5.6704,-5.6696,-5.6706,-5.6806,-5.6825,-5.6768,-5.6943,-5.6882,-5.6896,-5.6927,-5.6946,-5.6961,-5.6954,-5.6707,0,0,0,0,0,-5.6428,-5.6494,-5.6528,-5.6625,-5.6647,-5.6661,-5.6697,-5.6692,-5.6732,-5.6748,-5.6771,-5.681,-5.6869,-5.6909,-5.6965,-5.7081,-5.7089,-5.7134,-5.7149,-5.7162,-5.7173,-5.7236,-5.7257,-5.704,-5.704,-5.704,0,0,-5.6482,-5.6515,-5.6557,-5.6638,-5.6669,-5.6736,-5.6675,-5.6749,-5.6798,-5.6759,-5.6852,-5.687,-5.6912,-5.702,-5.7068,-5.7038,-5.7235,-5.7174,-5.7183,-5.7188,-5.7248,-5.7269,-5.7287,-5.7046,-5.7045,-5.7044,0,0,-5.6617,-5.6649,-5.6734,-5.6767,-5.6815,-5.6824,-5.6844,-5.6886,-5.6897,-5.6991,-5.6963,-5.702,-5.7123,-5.7155,-5.7185,-5.7333,-5.7308,-5.7351,-5.7429,-5.7491,-5.7508,-5.7523,-5.7576,-5.7595,-5.7363,-5.7363,-5.7363,0,-5.6679,-5.6782,-5.6779,-5.6856,-5.6893,-5.6863,-5.6948,-5.6979,-5.7042,-5.7067,-5.7033,-5.7163,-5.7189,-5.7303,-5.734,-5.7365,-5.7387,-5.7346,-5.7506,-5.7521,-5.7535,-5.7585,-5.7605,-5.7368,-5.7368,-5.7367,-5.7367,0,-5.6855,-5.6927,-5.6989,-5.7054,-5.7097,-5.7178,-5.7186,-5.723,-5.7221,-5.7233,-5.7328,-5.7359,-5.7421,-5.7448,-5.7439,-5.7561,-5.7541,-5.7507,-5.7446,-5.7561,-5.7608,-5.7627,-5.7375,-5.7374,-5.7372,-5.7371,0,0,-5.7029,-5.7093,-5.7116,-5.7145,-5.7197,-5.7251,-5.733,-5.7393,-5.7431,-5.7475,-5.754,-5.7629,-5.7598,-5.7632,-5.7626,-5.768,-5.7795,-5.7639,-5.764,-5.7667,-5.7931,-5.7957,-5.7979,-5.7779,-5.7783,-5.7786,-5.7928,0,-5.7167,-5.7308,-5.7309,-5.7437,-5.7503,-5.7476,-5.7544,-5.7582,-5.7595,-5.7651,-5.7664,-5.7728,-5.7682,-5.7703,-5.7755,-5.777,-5.7848,-5.776,-5.7838,-5.7841,-5.7828,-5.8004,-5.803,-5.8163,-5.7946,-5.7949,-5.7951,0,-5.7347,-5.7401,-5.7537,-5.758,-5.7608,-5.767,-5.7728,-5.7782,-5.7824,-5.783,-5.7869,-5.7855,-5.7933,-5.787,-5.7977,-5.7918,-5.7949,-5.7962,-5.7967,-5.7973,-5.7903,-5.8015,-5.8205,-5.8225,-5.798,-5.7978,-5.7976,0,-5.7461,-5.7566,-5.7662,-5.7688,-5.774,-5.7784,-5.7808,-5.7847,-5.7885,-5.7935,-5.7959,-5.8017,-5.8048,-5.8093,-5.8094,-5.8048,-5.8202,-5.8139,-5.8208,-5.8208,-5.8241,-5.8239,-5.8439,-5.8262,-5.8262,-5.8262,-5.8261,0,-5.7615,-5.7699,-5.7714,-5.7772,-5.7865,-5.7865,-5.7956,-5.7975,-5.801,-5.807,-5.805,-5.8106,-5.8105,-5.8162,-5.8163,-5.8252,-5.8266,-5.8272,-5.8271,-5.8274,-5.8273,-5.8294,-5.8285,-5.8267,-5.8266,-5.8265,-5.8264,0,-5.7757,-5.777,-5.7872,-5.7915,-5.7927,-5.7994,-5.8029,-5.8084,-5.8096,-5.8172,-5.819,-5.8208,-5.8274,-5.828,-5.8356,-5.8357,-5.8464,-5.8453,-5.8451,-5.8449,-5.8517,-5.851,-5.8737,-5.8767,-5.8571,-5.8573,-5.8574,0,-5.7854,-5.7919,-5.7969,-5.801,-5.8036,-5.8101,-5.8141,-5.8142,-5.8184,-5.8238,-5.8286,-5.8351,-5.8403,-5.8509,-5.8528,-5.8586,-5.8576,-5.8652,-5.8584,-5.8585,-5.8577,-5.8573,-5.8579,-5.8664,-5.8666,-5.8668,-5.867,0,-5.8026,-5.803,-5.8089,-5.8152,-5.82,-5.8248,-5.8293,-5.8327,-5.8334,-5.8381,-5.845,-5.8491,-5.857,-5.8634,-5.8692,-5.8713,-5.8693,-5.8691,-5.871,-5.8713,-5.8709,-5.8712,-5.8486,-5.8686,-5.8684,-5.8683,-5.8682,-5.8681,-5.8149,-5.8205,-5.825,-5.8317,-5.8351,-5.8394,-5.8449,-5.8468,-5.8526,-5.8593,-5.8589,-5.8665,-5.8705,-5.8781,-5.8807,-5.8865,-5.8839,-5.8867,-5.8874,-5.888,-5.8888,-5.87,-5.8875,-5.8875,-5.8874,-5.8874,-5.8874,0,-5.8319,-5.8347,-5.8409,-5.8474,-5.8527,-5.8505,-5.8554,-5.8599,-5.8667,-5.8707,-5.876,-5.8839,-5.8901,-5.8925,-5.8986,-5.9028,-5.902,-5.9043,-5.904,-5.9045,-5.8907,-5.8885,-5.9049,-5.9049,-5.9049,-5.9049,-5.9049,-5.9049,-5.8414,-5.8509,-5.8518,-5.8629,-5.8656,-5.8732,-5.8762,-5.8801,-5.8834,-5.8924,-5.8977,-5.8993,-5.9026,-5.9089,-5.9145,-5.915,-5.9173,-5.9201,-5.9202,-5.9073,-5.9055,-5.9038,-5.9017,-5.9206,-5.9207,-5.9336,-5.9337,-5.9338]}]]